timestamp,surface_pressure_avg,surface_temp_avg,battery_voltage,lat,long
2023-10-21 00:09:01+00:00,240.6847,11.3,11.61,47.84626,-54.09684
2023-10-21 00:19:00+00:00,245.4514,11.3,11.61,47.84626,-54.09684
2023-10-21 00:29:00+00:00,245.3498,11.3,11.61,47.84626,-54.09684
2023-10-21 00:39:00+00:00,248.2964,11.3,11.61,47.84626,-54.09684
2023-10-21 00:49:00+00:00,258.3614,11.3,11.61,47.84626,-54.09684
2023-10-21 00:59:00+00:00,262.0397,11.3,11.61,47.84626,-54.09684
2023-10-21 01:09:00+00:00,264.4197,11.3,11.61,47.84626,-54.09684
2023-10-21 01:19:00+00:00,274.6547,11.3,11.61,47.84626,-54.09684
2023-10-21 01:29:00+00:00,283.3414,11.2,11.61,47.84626,-54.09684
2023-10-21 01:39:00+00:00,280.9748,11.2,11.61,47.84626,-54.09684
2023-10-21 01:49:00+00:00,278.6047,11.27,11.61,47.84626,-54.09684
2023-10-21 01:59:00+00:00,290.5464,11.34,11.61,47.84626,-54.09684
2023-10-21 02:09:00+00:00,294.663,11.37,11.61,47.84626,-54.09684
2023-10-21 02:19:00+00:00,289.7548,11.3,11.61,47.84626,-54.09684
2023-10-21 02:29:00+00:00,292.08299999999997,11.2,11.61,47.84626,-54.09684
2023-10-21 02:39:00+00:00,299.8814,11.24,11.61,47.84626,-54.09684
2023-10-21 02:49:00+00:00,296.7664,11.3,11.61,47.84626,-54.09684
2023-10-21 02:59:00+00:00,293.8864,11.23,11.61,47.84626,-54.09684
2023-10-21 03:09:00+00:00,302.3747,11.24,11.61,47.84626,-54.09684
2023-10-21 03:19:00+00:00,309.558,11.3,11.61,47.84626,-54.09684
2023-10-21 03:29:00+00:00,307.4697,11.3,11.61,47.84626,-54.09684
2023-10-21 03:39:00+00:00,309.1447,11.29,11.61,47.84626,-54.09684
2023-10-21 03:49:00+00:00,314.023,11.2,11.61,47.84626,-54.09684
2023-10-21 03:59:00+00:00,311.153,11.2,11.61,47.84626,-54.09684
2023-10-21 04:09:00+00:00,308.0347,11.2,11.61,47.84626,-54.09684
2023-10-21 04:19:00+00:00,311.2314,11.2,11.61,47.84626,-54.09684
2023-10-21 04:29:00+00:00,310.2047,11.2,11.61,47.84626,-54.09684
2023-10-21 04:39:00+00:00,305.4496,11.2,11.61,47.84626,-54.09684
2023-10-21 04:49:00+00:00,303.428,11.2,11.61,47.84626,-54.09684
2023-10-21 04:59:00+00:00,305.5213,11.2,11.61,47.84626,-54.09684
2023-10-21 05:09:00+00:00,306.3014,11.2,11.61,47.84626,-54.09684
2023-10-21 05:19:01+00:00,304.3063,11.19,11.53,47.84626,-54.09684
2023-10-21 05:29:01+00:00,302.133,11.18,11.53,47.84626,-54.09684
2023-10-21 05:39:01+00:00,300.648,11.14,11.53,47.84626,-54.09684
2023-10-21 05:49:01+00:00,295.143,11.1,11.53,47.84626,-54.09684
2023-10-21 05:59:01+00:00,289.6998,11.1,11.53,47.84626,-54.09684
2023-10-21 06:09:01+00:00,285.8897,11.19,11.53,47.84626,-54.09684
2023-10-21 06:19:00+00:00,280.5564,11.15,11.53,47.84626,-54.09684
2023-10-21 06:29:00+00:00,273.7497,11.1,11.53,47.84626,-54.09684
2023-10-21 06:39:00+00:00,267.2381,11.1,11.53,47.84626,-54.09684
2023-10-21 06:49:00+00:00,261.1831,11.1,11.53,47.84626,-54.09684
2023-10-21 06:59:00+00:00,259.8281,11.1,11.53,47.84626,-54.09684
2023-10-21 07:09:00+00:00,257.3047,11.0,11.53,47.84626,-54.09684
2023-10-21 07:19:00+00:00,247.5214,11.0,11.53,47.84626,-54.09684
2023-10-21 07:29:00+00:00,237.3648,11.0,11.53,47.84626,-54.09684
2023-10-21 07:39:00+00:00,234.7931,11.0,11.53,47.84626,-54.09684
2023-10-21 07:49:00+00:00,229.1381,11.06,11.53,47.84626,-54.09684
2023-10-21 07:59:00+00:00,219.3248,11.08,11.53,47.84626,-54.09684
2023-10-21 08:09:00+00:00,214.7248,11.1,11.53,47.84626,-54.09684
2023-10-21 08:19:00+00:00,216.2447,11.1,11.53,47.84626,-54.09684
2023-10-21 08:29:00+00:00,216.2315,11.1,11.53,47.84626,-54.09684
2023-10-21 08:39:00+00:00,214.2664,11.1,11.53,47.84626,-54.09684
2023-10-21 08:49:00+00:00,209.6531,11.1,11.53,47.84626,-54.09684
2023-10-21 08:59:00+00:00,205.8098,11.1,11.53,47.84626,-54.09684
2023-10-21 09:09:00+00:00,206.2164,11.1,11.53,47.84626,-54.09684
2023-10-21 09:19:00+00:00,207.4481,11.1,11.53,47.84626,-54.09684
2023-10-21 09:29:00+00:00,204.6381,11.1,11.53,47.84626,-54.09684
2023-10-21 09:39:00+00:00,206.5264,11.1,11.53,47.84626,-54.09684
2023-10-21 09:49:00+00:00,215.8765,11.1,11.53,47.84626,-54.09684
2023-10-21 09:59:00+00:00,220.5481,11.1,11.53,47.84626,-54.09684
2023-10-21 10:09:00+00:00,220.0431,11.1,11.53,47.84626,-54.09684
2023-10-21 10:19:00+00:00,223.3681,11.1,11.53,47.84626,-54.09684
2023-10-21 10:29:00+00:00,231.8714,11.1,11.53,47.84626,-54.09684
2023-10-21 10:39:00+00:00,236.0931,11.1,11.53,47.84626,-54.09684
2023-10-21 10:49:00+00:00,235.5681,11.1,11.53,47.84626,-54.09684
2023-10-21 10:59:00+00:00,237.9564,11.1,11.53,47.84626,-54.09684
2023-10-21 11:09:00+00:00,242.4514,11.1,11.53,47.84626,-54.09684
2023-10-21 11:19:00+00:00,242.9413,11.1,11.53,47.84626,-54.09684
2023-10-21 11:29:00+00:00,242.8414,11.1,11.53,47.84626,-54.09684
2023-10-21 11:39:00+00:00,247.7914,11.1,11.53,47.84626,-54.09684
2023-10-21 11:49:00+00:00,251.1447,11.16,11.53,47.84626,-54.09684
2023-10-21 11:59:00+00:00,247.2781,11.19,11.53,47.84626,-54.09684
2023-10-21 12:09:00+00:00,245.2297,11.19,11.53,47.84626,-54.09684
2023-10-21 12:19:00+00:00,252.4114,11.2,11.53,47.84626,-54.09684
2023-10-21 12:29:00+00:00,258.8814,11.19,11.53,47.84626,-54.09684
2023-10-21 12:39:00+00:00,260.9414,11.17,11.53,47.84626,-54.09684
2023-10-21 12:49:00+00:00,263.1381,11.19,11.53,47.84626,-54.09684
2023-10-21 12:59:00+00:00,273.2648,11.19,11.53,47.84626,-54.09684
2023-10-21 13:09:00+00:00,280.9414,11.16,11.53,47.84626,-54.09684
2023-10-21 13:19:00+00:00,282.1213,11.19,11.53,47.84626,-54.09684
2023-10-21 13:29:00+00:00,287.6714,11.2,11.53,47.84626,-54.09684
2023-10-21 13:39:00+00:00,297.6063,11.2,11.53,47.84626,-54.09684
2023-10-21 13:49:00+00:00,306.908,11.2,11.53,47.84626,-54.09684
2023-10-21 13:59:00+00:00,312.3313,11.2,11.53,47.84626,-54.09684
2023-10-21 14:09:00+00:00,325.3829,11.2,11.53,47.84626,-54.09684
2023-10-21 14:19:00+00:00,331.86800000000005,11.2,11.53,47.84626,-54.09684
2023-10-21 14:29:00+00:00,331.6613,11.2,11.53,47.84626,-54.09684
2023-10-21 14:39:00+00:00,330.8746,11.2,11.53,47.84626,-54.09684
2023-10-21 14:49:00+00:00,336.6514,11.2,11.53,47.84626,-54.09684
2023-10-21 14:59:00+00:00,339.3397,11.2,11.53,47.84626,-54.09684
2023-10-21 15:09:00+00:00,336.5796,11.2,11.53,47.84626,-54.09684
2023-10-21 15:19:00+00:00,342.2463,11.2,11.53,47.84626,-54.09684
2023-10-21 15:29:00+00:00,349.8862,11.2,11.53,47.84626,-54.09684
2023-10-21 15:39:00+00:00,351.73800000000006,11.2,11.53,47.84626,-54.09684
2023-10-21 15:49:00+00:00,352.5046,11.2,11.53,47.84626,-54.09684
2023-10-21 15:59:00+00:00,359.1412,11.23,11.53,47.84626,-54.09684
2023-10-21 16:09:00+00:00,361.6829,11.25,11.53,47.84626,-54.09684
2023-10-21 16:19:00+00:00,355.9462,11.2,11.53,47.84626,-54.09684
2023-10-21 16:29:00+00:00,351.3463,11.2,11.53,47.84626,-54.09684
2023-10-21 16:39:00+00:00,351.0512,11.2,11.53,47.84626,-54.09684
2023-10-21 16:49:00+00:00,354.7029,11.2,11.53,47.84626,-54.09684
2023-10-21 16:59:00+00:00,357.3962,11.2,11.53,47.84626,-54.09684
2023-10-21 17:09:00+00:00,355.6929,11.23,11.53,47.84626,-54.09684
2023-10-21 17:19:00+00:00,354.7029,11.26,11.53,47.84626,-54.09684
2023-10-21 17:29:00+00:00,351.7447,11.24,11.53,47.84626,-54.09684
2023-10-21 17:39:00+00:00,351.3846,11.24,11.53,47.84626,-54.09684
2023-10-21 17:49:00+00:00,357.7779,11.3,11.53,47.84626,-54.09684
2023-10-21 17:59:00+00:00,355.7229,11.3,11.53,47.84626,-54.09684
2023-10-21 18:09:00+00:00,350.9813,11.3,11.53,47.84626,-54.09684
2023-10-21 18:19:00+00:00,353.0847,11.3,11.53,47.84626,-54.09684
2023-10-21 18:29:00+00:00,348.963,11.3,11.53,47.84626,-54.09684
2023-10-21 18:39:00+00:00,341.8963,11.3,11.53,47.84626,-54.09684
2023-10-21 18:49:00+00:00,333.6163,11.3,11.53,47.84626,-54.09684
2023-10-21 18:59:00+00:00,321.5513,11.28,11.53,47.84626,-54.09684
2023-10-21 19:09:00+00:00,309.258,11.3,11.53,47.84626,-54.09684
2023-10-21 19:19:00+00:00,298.9197,11.29,11.53,47.84626,-54.09684
2023-10-21 19:29:00+00:00,292.6197,11.28,11.53,47.84626,-54.09684
2023-10-21 19:39:00+00:00,286.233,11.29,11.53,47.84626,-54.09684
2023-10-21 19:49:00+00:00,281.938,11.24,11.53,47.84626,-54.09684
2023-10-21 19:59:00+00:00,284.9197,11.26,11.53,47.84626,-54.09684
2023-10-21 20:09:00+00:00,287.543,11.27,11.53,47.84626,-54.09684
2023-10-21 20:19:00+00:00,287.2414,11.29,11.53,47.84626,-54.09684
2023-10-21 20:29:00+00:00,284.7164,11.29,11.53,47.84626,-54.09684
2023-10-21 20:39:00+00:00,271.5147,11.28,11.53,47.84626,-54.09684
2023-10-21 20:49:00+00:00,255.4614,11.29,11.53,47.84626,-54.09684
2023-10-21 20:59:00+00:00,254.7864,11.29,11.53,47.84626,-54.09684
2023-10-21 21:09:00+00:00,258.5731,11.29,11.53,47.84626,-54.09684
2023-10-21 21:19:00+00:00,251.4331,11.29,11.46,47.84626,-54.09684
2023-10-21 21:29:00+00:00,247.3231,11.3,11.46,47.84626,-54.09684
2023-10-21 21:39:00+00:00,255.9797,11.3,11.46,47.84626,-54.09684
2023-10-21 21:49:00+00:00,259.9764,11.3,11.46,47.84626,-54.09684
2023-10-21 21:59:00+00:00,258.4948,11.3,11.46,47.84626,-54.09684
2023-10-21 22:09:00+00:00,268.0431,11.3,11.46,47.84626,-54.09684
2023-10-21 22:19:01+00:00,277.0114,11.3,11.46,47.84626,-54.09684
2023-10-21 22:29:01+00:00,269.2863,11.3,11.46,47.84626,-54.09684
2023-10-21 22:39:01+00:00,259.0231,11.3,11.46,47.84626,-54.09684
2023-10-21 22:49:01+00:00,261.8731,11.3,11.46,47.84626,-54.09684
2023-10-21 22:59:01+00:00,263.6614,11.3,11.46,47.84626,-54.09684
2023-10-21 23:09:01+00:00,263.3164,11.3,11.46,47.84626,-54.09684
2023-10-21 23:19:00+00:00,265.5431,11.3,11.46,47.84626,-54.09684
2023-10-21 23:29:00+00:00,263.7898,11.3,11.46,47.84626,-54.09684
2023-10-21 23:39:00+00:00,260.6981,11.32,11.46,47.84626,-54.09684
2023-10-21 23:49:00+00:00,264.0764,11.3,11.46,47.84626,-54.09684
2023-10-21 23:59:00+00:00,271.9997,11.3,11.46,47.84626,-54.09684
